• în România
  • Lista ţărilor
  • Pe 7 zile
  • Temperatura apei
  • Hartă satelitară
  • Meteo pe hartă
  • Widget-uri
  • user-avatar
    Intrare

    Meteo pe oră la Sumgait

    Astăzi, 16 Iulie, Luni

    Timp Temperatura Precipitaţii Vânt Presiune Umiditate
    00:00 +30°C° 0 mm 5 m/s 729 mmHg 49%
    01:00 +29°C° 0 mm 5 m/s 729 mmHg 50%
    02:00 +29°C° 0 mm 5 m/s 729 mmHg 52%
    03:00 +29°C° 0 mm 5 m/s 730 mmHg 51%
    04:00 +29°C° 0 mm 5 m/s 730 mmHg 52%
    05:00 +29°C° 0 mm 4 m/s 730 mmHg 53%
    06:00 +29°C° 0 mm 4 m/s 730 mmHg 54%
    07:00 +29°C° 0 mm 4 m/s 730 mmHg 53%
    08:00 +30°C° 0 mm 4 m/s 731 mmHg 51%
    09:00 +32°C° 0 mm 5 m/s 731 mmHg 51%
    10:00 +32°C° 0 mm 5 m/s 731 mmHg 50%
    11:00 +33°C° 0 mm 6 m/s 731 mmHg 50%
    12:00 +33°C° 0 mm 7 m/s 731 mmHg 50%
    13:00 +33°C° 0 mm 7 m/s 730 mmHg 49%
    14:00 +33°C° 0 mm 8 m/s 730 mmHg 50%
    15:00 +33°C° 0 mm 9 m/s 730 mmHg 52%
    16:00 +32°C° 0 mm 9 m/s 731 mmHg 53%
    17:00 +32°C° 0 mm 10 m/s 731 mmHg 54%
    18:00 +31°C° 0 mm 10 m/s 731 mmHg 55%
    19:00 +31°C° 0,1 mm 9 m/s 731 mmHg 56%
    20:00 +29°C° 0,1 mm 9 m/s 732 mmHg 56%
    21:00 +29°C° 0,1 mm 8 m/s 732 mmHg 57%
    22:00 +29°C° 0,1 mm 7 m/s 732 mmHg 56%
    23:00 +29°C° 0,1 mm 6 m/s 732 mmHg 55%

    Mâine, 17 Iulie, Marţi

    Timp Temperatura Precipitaţii Vânt Presiune Umiditate
    00:00 +29°C° 0,1 mm 5 m/s 733 mmHg 54%
    01:00 +28°C° 0 mm 5 m/s 733 mmHg 53%
    02:00 +28°C° 0 mm 5 m/s 733 mmHg 53%
    03:00 +28°C° 0 mm 4 m/s 733 mmHg 53%
    04:00 +28°C° 0 mm 4 m/s 733 mmHg 52%
    05:00 +28°C° 0 mm 4 m/s 734 mmHg 51%
    06:00 +28°C° 0 mm 4 m/s 734 mmHg 50%
    07:00 +29°C° 0 mm 4 m/s 734 mmHg 48%
    08:00 +30°C° 0 mm 4 m/s 734 mmHg 46%
    09:00 +30°C° 0 mm 4 m/s 734 mmHg 44%
    10:00 +32°C° 0 mm 4 m/s 734 mmHg 44%
    11:00 +33°C° 0 mm 4 m/s 734 mmHg 44%
    12:00 +33°C° 0 mm 4 m/s 734 mmHg 43%
    13:00 +33°C° 0 mm 4 m/s 734 mmHg 44%
    14:00 +33°C° 0 mm 5 m/s 733 mmHg 45%
    15:00 +34°C° 0 mm 5 m/s 733 mmHg 47%
    16:00 +33°C° 0 mm 5 m/s 733 mmHg 50%
    17:00 +32°C° 0 mm 5 m/s 733 mmHg 53%
    18:00 +32°C° 0 mm 4 m/s 733 mmHg 56%
    19:00 +30°C° 0 mm 4 m/s 733 mmHg 59%
    20:00 +29°C° 0 mm 3 m/s 733 mmHg 62%
    21:00 +29°C° 0 mm 3 m/s 733 mmHg 65%
    22:00 +29°C° 0,2 mm 3 m/s 733 mmHg 65%
    23:00 +28°C° 0,2 mm 2 m/s 733 mmHg 66%

    Poimâine, 18 Iulie, Miercuri

    Timp Temperatura Precipitaţii Vânt Presiune Umiditate
    00:00 +28°C° 0,2 mm 2 m/s 733 mmHg 67%
    01:00 +28°C° 0,1 mm 2 m/s 733 mmHg 67%
    02:00 +28°C° 0,1 mm 2 m/s 733 mmHg 68%
    03:00 +28°C° 0,1 mm 2 m/s 733 mmHg 69%
    04:00 +28°C° 0 mm 2 m/s 733 mmHg 68%
    05:00 +28°C° 0 mm 2 m/s 733 mmHg 67%
    06:00 +28°C° 0 mm 2 m/s 733 mmHg 67%
    07:00 +29°C° 0 mm 2 m/s 734 mmHg 63%
    08:00 +29°C° 0 mm 2 m/s 734 mmHg 59%
    09:00 +30°C° 0 mm 2 m/s 734 mmHg 55%
    10:00 +31°C° 0 mm 2 m/s 734 mmHg 51%
    11:00 +32°C° 0 mm 2 m/s 733 mmHg 47%
    12:00 +34°C° 0 mm 3 m/s 733 mmHg 43%
    13:00 +35°C° 0 mm 3 m/s 733 mmHg 42%
    14:00 +35°C° 0 mm 4 m/s 732 mmHg 41%
    15:00 +35°C° 0 mm 5 m/s 732 mmHg 40%
    16:00 +35°C° 0 mm 4 m/s 732 mmHg 42%
    17:00 +34°C° 0 mm 4 m/s 732 mmHg 43%
    18:00 +34°C° 0 mm 4 m/s 732 mmHg 45%
    19:00 +33°C° 0,1 mm 4 m/s 732 mmHg 48%
    20:00 +31°C° 0,1 mm 3 m/s 732 mmHg 51%
    21:00 +30°C° 0,1 mm 3 m/s 733 mmHg 54%
    22:00 +30°C° 0,2 mm 2 m/s 732 mmHg 55%
    23:00 +29°C° 0,2 mm 2 m/s 732 mmHg 57%

    19 Iulie, Joi

    Timp Temperatura Precipitaţii Vânt Presiune Umiditate
    00:00 +29°C° 0,2 mm 2 m/s 732 mmHg 58%
    01:00 +29°C° 0,2 mm 2 m/s 732 mmHg 59%
    02:00 +29°C° 0,2 mm 2 m/s 732 mmHg 60%
    03:00 +28°C° 0,2 mm 3 m/s 732 mmHg 60%
    04:00 +28°C° 0,1 mm 2 m/s 732 mmHg 59%
    05:00 +29°C° 0,1 mm 2 m/s 732 mmHg 58%
    06:00 +29°C° 0,1 mm 2 m/s 732 mmHg 56%
    07:00 +30°C° 0 mm 2 m/s 732 mmHg 53%
    08:00 +31°C° 0 mm 2 m/s 732 mmHg 49%
    09:00 +32°C° 0 mm 1 m/s 733 mmHg 45%
    10:00 +34°C° 0 mm 2 m/s 732 mmHg 42%
    11:00 +35°C° 0 mm 3 m/s 732 mmHg 39%
    12:00 +36°C° 0 mm 3 m/s 732 mmHg 36%
    13:00 +37°C° 0 mm 4 m/s 732 mmHg 36%
    14:00 +37°C° 0 mm 4 m/s 731 mmHg 35%
    15:00 +37°C° 0 mm 4 m/s 731 mmHg 34%
    16:00 +37°C° 0 mm 4 m/s 731 mmHg 36%
    17:00 +36°C° 0 mm 4 m/s 731 mmHg 38%
    18:00 +35°C° 0 mm 4 m/s 731 mmHg 40%
    19:00 +34°C° 0 mm 3 m/s 731 mmHg 43%
    20:00 +33°C° 0 mm 3 m/s 731 mmHg 46%
    21:00 +31°C° 0 mm 2 m/s 732 mmHg 49%
    22:00 +31°C° 0 mm 2 m/s 732 mmHg 50%
    23:00 +31°C° 0 mm 2 m/s 731 mmHg 51%

    20 Iulie, Vineri

    Timp Temperatura Precipitaţii Vânt Presiune Umiditate
    00:00 +30°C° 0 mm 2 m/s 731 mmHg 52%
    01:00 +30°C° 0 mm 2 m/s 731 mmHg 51%
    02:00 +30°C° 0 mm 3 m/s 731 mmHg 51%
    03:00 +30°C° 0 mm 3 m/s 731 mmHg 51%
    04:00 +30°C° 0 mm 3 m/s 731 mmHg 50%
    05:00 +30°C° 0 mm 3 m/s 732 mmHg 49%
    06:00 +31°C° 0 mm 3 m/s 732 mmHg 48%
    07:00 +33°C° 0 mm 3 m/s 732 mmHg 45%
    08:00 +34°C° 0 mm 3 m/s 732 mmHg 43%
    09:00 +35°C° 0 mm 2 m/s 732 mmHg 40%
    10:00 +36°C° 0 mm 3 m/s 732 mmHg 38%
    11:00 +37°C° 0 mm 3 m/s 732 mmHg 36%
    12:00 +38°C° 0 mm 3 m/s 732 mmHg 33%
    13:00 +38°C° 0 mm 4 m/s 731 mmHg 34%
    14:00 +38°C° 0 mm 4 m/s 731 mmHg 34%
    15:00 +39°C° 0 mm 5 m/s 731 mmHg 34%
    16:00 +37°C° 0 mm 5 m/s 731 mmHg 37%
    17:00 +36°C° 0 mm 5 m/s 730 mmHg 39%
    18:00 +36°C° 0 mm 5 m/s 730 mmHg 41%
    19:00 +35°C° 0 mm 5 m/s 731 mmHg 43%
    20:00 +34°C° 0 mm 5 m/s 731 mmHg 46%
    21:00 +34°C° 0 mm 5 m/s 731 mmHg 48%
    22:00 +33°C° 0 mm 4 m/s 731 mmHg 48%
    23:00 +33°C° 0 mm 4 m/s 731 mmHg 48%

    21 Iulie, Sâmbătă

    Timp Temperatura Precipitaţii Vânt Presiune Umiditate
    00:00 +33°C° 0 mm 4 m/s 730 mmHg 48%
    01:00 +31°C° 0 mm 3 m/s 730 mmHg 48%
    02:00 +31°C° 0 mm 3 m/s 730 mmHg 48%
    03:00 +31°C° 0 mm 3 m/s 730 mmHg 49%
    04:00 +31°C° 0 mm 3 m/s 730 mmHg 48%
    05:00 +31°C° 0 mm 3 m/s 731 mmHg 47%
    06:00 +33°C° 0 mm 3 m/s 731 mmHg 46%
    07:00 +34°C° 0 mm 4 m/s 731 mmHg 43%
    08:00 +35°C° 0 mm 4 m/s 731 mmHg 41%
    09:00 +36°C° 0 mm 4 m/s 731 mmHg 38%
    10:00 +37°C° 0 mm 5 m/s 731 mmHg 37%
    11:00 +39°C° 0 mm 5 m/s 731 mmHg 36%
    12:00 +39°C° 0 mm 6 m/s 731 mmHg 35%
    13:00 +39°C° 0 mm 7 m/s 731 mmHg 35%
    14:00 +39°C° 0 mm 8 m/s 730 mmHg 35%
    15:00 +39°C° 0 mm 9 m/s 730 mmHg 36%
    16:00 +38°C° 0 mm 10 m/s 730 mmHg 36%
    17:00 +38°C° 0 mm 10 m/s 730 mmHg 37%
    18:00 +37°C° 0 mm 10 m/s 730 mmHg 37%
    19:00 +37°C° 0,2 mm 11 m/s 731 mmHg 38%
    20:00 +36°C° 0,2 mm 11 m/s 731 mmHg 39%
    21:00 +36°C° 0,2 mm 11 m/s 731 mmHg 40%
    22:00 +34°C° 0,2 mm 10 m/s 731 mmHg 41%
    23:00 +34°C° 0,2 mm 9 m/s 731 mmHg 42%
    Arată mai mult